Precipitable_Water
0.56 0.56 0.60 0.61 0.59 0.58 0.59 0.64 0.57 0.52 0.46 0.42 0.45 0.47 0.47 0.42 0.39 0.39 0.28 0.34 0.42 0.45 0.43 0.38 0.45 0.52 0.58 0.58 0.68 0.81 0.61 0.62 0.73 0.77 0.68 0.86 0.73 0.78 0.84 0.84 0.83 0.86 1.02 1.02 1.13
0.55 0.52 0.52 0.55 0.58 0.56 0.56 0.55 0.56 0.59 0.49 0.44 0.43 0.49 0.53 0.53 0.33 0.26 0.32 0.43 0.44 0.43 0.38 0.35 0.41 0.50 0.50 0.57 0.64 0.70 0.61 0.68 0.85 0.85 0.75 0.93 0.72 0.74 0.75 0.69 0.86 1.07 1.11 1.11 1.09
0.42 0.46 0.48 0.47 0.48 0.49 0.49 0.50 0.50 0.50 0.57 0.49 0.44 0.51 0.56 0.54 0.38 0.35 0.45 0.43 0.40 0.40 0.34 0.38 0.43 0.46 0.46 0.54 0.59 0.70 0.58 0.75 0.75 0.71 0.66 0.63 0.64 0.80 0.82 0.66 0.90 0.98 1.06 1.08 1.04
0.31 0.31 0.31 0.32 0.38 0.41 0.41 0.42 0.45 0.47 0.46 0.49 0.51 0.54 0.57 0.45 0.31 0.52 0.48 0.38 0.40 0.39 0.34 0.37 0.43 0.41 0.41 0.43 0.57 0.57 0.69 0.72 0.71 0.66 0.60 0.56 0.66 0.78 0.86 0.81 0.94 1.10 1.10 1.07 1.02
0.29 0.27 0.26 0.27 0.27 0.26 0.30 0.40 0.41 0.40 0.41 0.45 0.50 0.56 0.51 0.38 0.29 0.43 0.48 0.48 0.39 0.31 0.27 0.28 0.31 0.40 0.40 0.47 0.52 0.52 0.65 0.73 0.66 0.57 0.56 0.59 0.60 0.73 0.69 0.87 1.11 1.15 1.07 1.02 1.04
0.30 0.27 0.26 0.25 0.24 0.24 0.25 0.27 0.30 0.41 0.40 0.40 0.50 0.55 0.43 0.30 0.41 0.44 0.46 0.53 0.51 0.35 0.24 0.26 0.26 0.32 0.37 0.43 0.48 0.56 0.65 0.74 0.68 0.60 0.60 0.57 0.59 0.62 0.65 0.87 1.02 1.02 0.99 1.00 1.03
0.29 0.27 0.25 0.25 0.23 0.23 0.24 0.26 0.26 0.27 0.39 0.47 0.47 0.45 0.34 0.27 0.36 0.37 0.49 0.46 0.58 0.46 0.31 0.25 0.28 0.30 0.33 0.37 0.49 0.51 0.53 0.65 0.61 0.59 0.57 0.66 0.56 0.51 0.73 0.93 0.94 0.97 0.92 0.92 1.04
0.32 0.28 0.26 0.25 0.22 0.24 0.28 0.28 0.27 0.27 0.34 0.44 0.46 0.44 0.23 0.33 0.33 0.29 0.30 0.45 0.54 0.57 0.49 0.37 0.29 0.31 0.33 0.36 0.37 0.41 0.47 0.47 0.59 0.57 0.58 0.65 0.52 0.66 0.79 0.90 0.92 1.00 0.96 0.98 0.99
0.34 0.30 0.27 0.26 0.26 0.33 0.31 0.30 0.30 0.34 0.39 0.40 0.36 0.43 0.24 0.34 0.24 0.26 0.25 0.26 0.34 0.48 0.51 0.44 0.34 0.32 0.35 0.31 0.28 0.34 0.35 0.42 0.45 0.54 0.57 0.65 0.56 0.61 0.86 0.85 0.90 0.95 0.95 1.00 1.03
0.35 0.31 0.27 0.27 0.35 0.37 0.35 0.31 0.35 0.41 0.52 0.52 0.44 0.28 0.34 0.22 0.29 0.29 0.35 0.28 0.24 0.37 0.40 0.41 0.34 0.30 0.34 0.32 0.23 0.24 0.35 0.40 0.40 0.45 0.53 0.56 0.68 0.69 0.69 0.71 0.69 0.90 0.96 0.96 1.00
0.37 0.32 0.28 0.30 0.39 0.42 0.36 0.25 0.20 0.41 0.31 0.20 0.30 0.30 0.24 0.31 0.28 0.31 0.33 0.30 0.24 0.30 0.24 0.36 0.41 0.35 0.34 0.36 0.33 0.30 0.31 0.34 0.40 0.48 0.50 0.67 0.68 0.75 0.81 0.77 0.76 0.87 0.96 0.94 0.93
0.37 0.33 0.28 0.30 0.37 0.46 0.46 0.30 0.34 0.37 0.18 0.18 0.15 0.14 0.14 0.16 0.15 0.18 0.32 0.29 0.22 0.21 0.25 0.23 0.24 0.38 0.45 0.43 0.36 0.33 0.33 0.32 0.34 0.39 0.50 0.54 0.62 0.66 0.66 0.67 0.75 0.72 0.91 1.06 0.93
0.38 0.34 0.28 0.31 0.40 0.40 0.44 0.32 0.49 0.52 0.24 0.16 0.17 0.19 0.18 0.18 0.13 0.13 0.21 0.23 0.25 0.22 0.25 0.20 0.19 0.27 0.36 0.39 0.39 0.38 0.34 0.35 0.35 0.40 0.44 0.49 0.52 0.62 0.64 0.61 0.62 0.76 0.83 1.21 1.03
0.38 0.34 0.31 0.34 0.35 0.36 0.39 0.33 0.44 0.57 0.18 0.14 0.23 0.28 0.29 0.27 0.21 0.23 0.23 0.21 0.20 0.21 0.25 0.27 0.29 0.24 0.29 0.31 0.38 0.34 0.41 0.41 0.38 0.41 0.37 0.49 0.38 0.46 0.53 0.48 0.52 0.61 0.86 1.06 1.03
0.40 0.37 0.33 0.41 0.33 0.33 0.24 0.28 0.42 0.56 0.08 0.11 0.24 0.33 0.24 0.19 0.20 0.23 0.32 0.26 0.17 0.19 0.26 0.18 0.30 0.29 0.26 0.27 0.37 0.30 0.38 0.38 0.38 0.40 0.43 0.41 0.40 0.41 0.53 0.52 0.47 0.53 0.71 0.96 0.95
0.39 0.37 0.37 0.36 0.40 0.37 0.31 0.35 0.49 0.24 0.07 0.09 0.13 0.16 0.17 0.18 0.20 0.22 0.20 0.24 0.25 0.20 0.22 0.20 0.28 0.32 0.34 0.36 0.36 0.39 0.38 0.37 0.37 0.37 0.33 0.36 0.41 0.38 0.45 0.46 0.47 0.60 0.65 0.72 0.97
0.37 0.37 0.40 0.43 0.31 0.38 0.34 0.37 0.20 0.16 0.15 0.08 0.07 0.08 0.09 0.07 0.08 0.12 0.16 0.22 0.17 0.17 0.16 0.16 0.22 0.26 0.29 0.30 0.38 0.38 0.35 0.29 0.29 0.29 0.26 0.39 0.43 0.36 0.48 0.47 0.49 0.60 0.65 0.72 0.99
0.39 0.41 0.45 0.43 0.43 0.42 0.33 0.27 0.13 0.15 0.14 0.15 0.14 0.12 0.09 0.09 0.08 0.08 0.09 0.10 0.17 0.22 0.19 0.16 0.15 0.20 0.21 0.26 0.27 0.33 0.35 0.30 0.20 0.25 0.27 0.39 0.37 0.37 0.48 0.47 0.50 0.67 0.72 0.74 0.95
0.41 0.41 0.40 0.43 0.45 0.43 0.28 0.16 0.14 0.14 0.17 0.17 0.15 0.12 0.10 0.08 0.07 0.09 0.10 0.11 0.10 0.16 0.18 0.19 0.18 0.21 0.24 0.27 0.28 0.27 0.30 0.31 0.32 0.31 0.31 0.38 0.46 0.48 0.48 0.44 0.43 0.54 0.61 0.59 0.88
0.39 0.37 0.39 0.52 0.48 0.41 0.26 0.17 0.17 0.21 0.21 0.19 0.13 0.14 0.10 0.11 0.10 0.09 0.09 0.11 0.12 0.13 0.15 0.16 0.17 0.20 0.22 0.26 0.27 0.29 0.31 0.28 0.32 0.23 0.24 0.28 0.37 0.36 0.46 0.48 0.44 0.47 0.54 0.50 0.63
0.42 0.32 0.51 0.58 0.49 0.34 0.22 0.22 0.23 0.26 0.26 0.20 0.16 0.16 0.15 0.14 0.14 0.12 0.11 0.12 0.12 0.15 0.15 0.15 0.17 0.17 0.23 0.23 0.22 0.25 0.28 0.30 0.30 0.33 0.25 0.23 0.28 0.38 0.42 0.51 0.56 0.60 0.56 0.51 0.49
0.45 0.28 0.57 0.57 0.32 0.33 0.25 0.28 0.29 0.27 0.28 0.25 0.24 0.21 0.18 0.18 0.16 0.14 0.13 0.16 0.16 0.18 0.16 0.16 0.14 0.16 0.19 0.26 0.26 0.27 0.28 0.32 0.28 0.22 0.30 0.32 0.26 0.40 0.44 0.52 0.57 0.65 0.63 0.47 0.53
0.35 0.33 0.45 0.49 0.25 0.26 0.29 0.29 0.30 0.28 0.26 0.25 0.23 0.23 0.23 0.20 0.17 0.18 0.16 0.17 0.20 0.19 0.17 0.17 0.18 0.14 0.16 0.21 0.25 0.24 0.26 0.33 0.34 0.31 0.31 0.30 0.24 0.44 0.40 0.44 0.59 0.66 0.58 0.49 0.61
0.37 0.26 0.33 0.40 0.39 0.30 0.27 0.25 0.23 0.28 0.26 0.27 0.24 0.24 0.21 0.20 0.21 0.18 0.18 0.19 0.20 0.21 0.24 0.24 0.20 0.19 0.20 0.19 0.27 0.27 0.24 0.28 0.34 0.32 0.24 0.27 0.31 0.36 0.35 0.39 0.53 0.59 0.61 0.50 0.68
0.36 0.29 0.32 0.25 0.27 0.30 0.31 0.32 0.26 0.25 0.30 0.31 0.26 0.24 0.22 0.20 0.20 0.18 0.20 0.22 0.23 0.22 0.21 0.24 0.18 0.20 0.19 0.23 0.25 0.25 0.28 0.26 0.31 0.32 0.28 0.28 0.31 0.36 0.37 0.39 0.46 0.57 0.53 0.55 0.61
0.30 0.28 0.31 0.26 0.28 0.27 0.28 0.24 0.24 0.25 0.25 0.24 0.24 0.23 0.25 0.22 0.21 0.22 0.23 0.24 0.23 0.25 0.24 0.24 0.25 0.32 0.24 0.20 0.27 0.27 0.34 0.25 0.28 0.37 0.30 0.29 0.36 0.38 0.40 0.45 0.49 0.49 0.56 0.52 0.55
0.41 0.39 0.34 0.26 0.26 0.24 0.23 0.23 0.22 0.25 0.23 0.23 0.25 0.24 0.20 0.20 0.28 0.31 0.32 0.34 0.33 0.29 0.26 0.32 0.34 0.30 0.24 0.18 0.22 0.27 0.33 0.31 0.27 0.34 0.28 0.22 0.27 0.37 0.37 0.41 0.49 0.52 0.54 0.56 0.53
Wind_Speed
12 12 13 13 13 13 13 14 13 13 12 12 12 12 12 13 15 15 18 18 16 20 15 16 16 16 16 16 15 14 11 8 8 11 5 9 8 6 4 4 4 3 2 2 2
13 14 14 15 15 15 15 15 15 16 14 14 13 13 13 13 14 18 18 20 20 19 19 18 18 17 16 18 15 15 13 9 9 7 4 10 8 9 7 8 3 1 1 2 2
14 15 15 16 16 17 17 17 17 16 16 16 15 14 13 13 14 11 12 20 21 20 21 21 19 19 20 19 19 18 17 10 10 9 9 9 10 8 12 9 8 8 5 4 4
16 16 16 17 17 18 18 18 18 18 17 17 17 16 14 12 11 10 10 13 19 22 22 22 21 22 21 21 21 21 20 18 14 8 10 13 11 12 12 6 12 11 9 7 7
17 17 17 18 18 18 18 19 19 18 18 18 17 16 15 16 18 15 14 14 15 21 24 25 24 22 22 21 21 23 22 20 15 15 14 15 15 12 12 6 11 12 9 9 9
19 19 19 19 20 19 19 19 19 19 18 17 16 16 16 18 17 16 16 17 17 18 23 26 26 24 24 24 24 22 22 21 22 17 17 17 16 16 15 11 10 11 11 10 10
21 21 22 22 22 21 21 20 20 19 19 17 16 16 19 21 18 19 18 18 20 22 22 25 26 25 24 25 24 24 24 22 22 21 19 17 18 19 18 13 12 12 12 12 12
23 23 23 23 24 23 23 22 21 19 18 17 17 17 18 19 20 20 21 21 21 22 23 24 26 27 26 23 25 26 25 24 23 23 22 20 21 18 15 15 15 15 14 13 13
24 24 24 24 24 24 25 24 22 20 18 17 17 17 18 15 17 18 20 22 22 22 25 25 27 28 27 27 26 26 25 27 26 25 24 23 21 18 14 16 18 16 14 14 13
24 25 25 25 24 25 26 25 22 20 19 19 20 19 18 17 15 16 18 19 21 21 22 25 26 27 29 27 28 28 26 26 26 24 24 28 27 20 21 21 19 17 16 15 14
24 25 25 25 24 24 24 20 19 20 19 23 24 25 25 22 19 20 19 17 20 21 23 25 25 32 31 30 31 29 30 30 28 23 26 24 24 23 23 17 16 17 18 16 16
24 25 25 24 23 23 19 16 18 22 25 27 29 30 29 27 27 23 20 19 21 23 23 25 32 28 26 29 31 32 33 32 30 28 24 26 28 27 24 24 23 21 18 19 15
24 24 25 24 22 20 18 18 20 22 25 26 27 27 26 27 30 28 26 26 24 26 27 28 27 26 29 29 31 32 31 31 32 28 23 24 30 29 26 21 23 22 21 25 19
25 25 25 25 20 22 17 21 21 21 22 23 20 19 19 21 24 26 28 30 29 30 27 30 28 29 30 31 30 30 31 31 28 28 26 24 28 29 26 29 28 25 23 24 21
26 26 26 24 23 21 24 23 22 19 18 14 13 15 15 17 19 8 19 24 33 30 26 34 29 30 31 33 28 31 30 28 27 29 32 34 26 26 26 26 27 26 24 25 22
27 27 26 24 24 24 25 23 21 18 20 17 15 16 20 22 23 25 24 21 26 32 32 37 32 31 34 32 32 31 28 28 29 28 30 36 30 32 29 29 23 21 26 26 28
29 29 27 26 25 27 25 22 21 21 20 24 26 24 25 27 25 24 24 24 26 26 31 36 35 34 33 33 32 30 30 25 26 28 33 29 29 35 30 28 21 24 25 26 34
31 30 28 28 27 26 24 22 24 26 27 31 31 31 32 31 31 30 30 29 28 28 30 31 32 34 34 35 33 30 28 27 34 27 30 29 31 33 32 32 23 20 25 21 28
33 29 30 29 27 26 25 26 26 27 27 25 31 31 31 32 31 31 32 33 35 32 30 32 39 35 36 33 35 35 33 34 31 31 28 27 28 30 28 27 28 25 22 23 29
33 33 32 27 26 26 27 30 32 29 30 29 32 30 33 33 33 33 34 34 34 35 36 38 36 37 35 35 34 40 35 30 30 33 34 33 31 26 24 27 24 25 26 24 25
33 31 29 29 29 28 29 31 32 30 30 29 32 35 37 38 38 38 38 40 39 37 33 35 36 42 36 35 37 31 36 33 32 31 32 32 34 30 24 20 23 25 26 26 26
33 31 30 30 30 29 32 32 32 33 33 36 38 40 41 41 42 41 42 42 41 40 41 39 39 37 41 38 38 40 34 39 31 38 33 33 37 28 27 20 23 28 27 25 27
34 37 36 34 32 34 37 40 40 39 39 38 40 40 41 44 45 44 46 47 46 45 39 39 36 39 41 39 40 41 41 36 39 35 37 32 35 28 31 27 24 20 24 25 27
34 33 30 32 36 37 38 41 42 39 40 39 40 41 43 44 46 49 50 51 49 49 47 43 45 45 39 42 39 37 44 43 39 34 37 41 35 32 30 30 23 26 27 22 26
34 35 34 34 35 37 38 39 41 41 39 39 41 41 43 44 47 48 49 50 50 50 50 46 49 50 49 50 47 49 45 46 41 42 39 39 36 35 31 29 28 22 25 23 25
36 35 36 40 40 40 40 42 43 43 40 42 42 42 42 45 47 48 48 47 49 50 46 46 48 44 52 52 50 50 47 49 44 40 41 44 37 36 34 30 27 31 28 27 28
37 38 38 39 40 40 39 41 43 42 43 43 43 43 44 44 41 42 44 46 48 49 50 43 36 40 48 52 53 51 50 45 47 40 41 42 39 36 36 35 26 28 29 29 31
Wind_Direction
325 312 304 304 304 303 303 296 295 291 294 292 286 283 277 267 259 242 235 225 223 225 224 223 221 223 230 233 240 248 251 284 288 269 232 229 229 220 247 227 276 299 341 149 153
323 321 311 304 301 300 298 297 297 288 286 288 286 283 278 271 260 247 239 230 229 224 225 222 224 225 231 234 237 233 245 250 240 235 200 229 240 221 249 255 220 277 75 166 205
321 318 314 310 306 301 296 295 294 295 285 281 283 281 277 271 260 244 243 228 227 226 226 226 230 231 235 236 237 235 241 238 279 254 251 250 252 231 254 252 216 242 231 226 228
321 318 316 313 308 303 300 296 294 291 288 283 280 274 271 260 249 247 243 233 231 229 229 228 233 233 240 240 240 244 243 255 262 270 260 257 263 253 264 251 246 225 225 233 237
318 317 316 314 310 306 302 298 294 291 288 284 279 273 263 254 253 252 250 245 238 229 228 228 232 234 238 241 244 244 247 253 265 260 264 259 260 272 252 250 294 208 224 239 247
312 312 311 311 309 306 304 300 295 290 287 283 276 270 264 261 252 248 255 244 242 234 232 231 232 235 241 243 245 248 251 252 255 262 260 253 255 259 258 238 200 218 236 244 247
309 307 307 306 305 303 301 298 296 290 285 279 276 269 265 259 259 259 253 247 244 240 238 234 234 238 240 246 249 253 257 254 247 253 258 248 251 259 251 220 230 234 245 243 245
307 306 305 304 302 300 298 295 292 287 283 277 272 270 269 266 262 260 253 251 247 241 240 239 235 241 243 249 250 250 250 252 250 249 248 248 256 254 235 227 243 248 251 243 239
306 305 304 303 301 299 297 292 286 280 277 274 271 269 271 266 264 260 255 252 249 248 242 237 234 237 240 243 246 247 247 245 250 251 250 242 244 247 223 237 237 236 245 241 236
306 306 305 303 300 300 299 289 280 276 273 268 267 270 267 263 262 268 263 253 248 250 242 235 238 239 238 238 240 241 244 247 252 248 245 241 240 233 242 242 245 238 242 236 233
306 306 305 303 300 302 302 287 283 270 275 269 270 264 273 267 265 268 259 256 249 247 242 240 239 237 237 239 246 246 249 250 248 246 248 244 236 245 256 240 234 236 233 235 232
307 307 307 304 301 302 302 291 287 279 277 273 267 264 263 264 265 262 257 253 246 244 242 242 241 245 247 245 245 246 250 252 256 255 249 234 248 246 243 237 237 249 240 214 231
308 308 308 305 299 300 297 300 293 289 276 275 265 262 262 257 259 259 254 250 250 245 243 241 249 242 245 248 245 249 252 252 256 259 266 252 244 248 244 244 251 235 236 232 236
306 307 308 306 293 299 289 298 295 293 280 279 262 265 260 258 265 259 252 250 246 250 246 250 246 246 240 245 251 254 247 255 263 261 256 245 254 248 250 255 246 236 228 224 231
303 304 304 302 294 294 294 294 291 286 285 282 255 263 262 255 278 274 252 248 250 248 247 251 247 245 246 244 240 254 256 260 261 248 256 253 254 253 251 251 247 238 222 228 234
302 301 300 297 292 292 294 290 283 274 268 270 267 269 267 264 264 263 264 258 253 249 251 255 251 250 249 248 248 252 249 249 251 253 252 247 250 253 248 251 251 223 232 240 225
301 298 295 291 289 293 290 284 276 264 281 275 276 275 277 273 268 263 263 256 253 251 250 255 253 251 251 255 249 245 245 248 248 242 247 245 249 253 250 250 245 241 236 242 222
300 297 292 288 288 288 284 275 268 272 272 283 285 280 272 272 271 269 268 265 261 252 255 259 257 248 246 247 249 244 243 239 246 248 253 248 241 252 248 250 244 222 234 218 211
300 295 291 288 285 282 277 268 269 274 281 287 285 276 271 268 268 270 264 261 260 259 261 259 258 257 256 250 242 244 241 245 251 252 258 252 258 249 251 246 236 226 227 221 209
298 295 289 284 284 279 272 269 272 275 283 281 275 275 276 274 272 270 267 268 264 258 257 263 268 259 256 255 253 238 241 244 242 244 246 248 247 246 238 251 240 230 222 222 219
295 293 285 285 282 276 270 271 276 275 278 275 274 275 274 275 274 271 267 266 263 268 263 260 262 262 260 251 248 250 234 235 244 239 243 250 246 245 251 236 250 248 225 226 222
290 287 284 284 281 275 272 272 275 274 274 273 271 271 271 271 271 269 266 261 265 266 267 263 262 259 258 256 251 246 249 232 237 242 241 246 249 245 249 240 241 235 233 223 218
287 285 282 278 278 275 275 272 272 274 274 274 272 270 270 269 269 267 267 265 263 261 259 261 259 261 260 254 246 243 241 240 234 239 242 239 248 241 245 247 232 238 225 223 217
286 285 284 273 274 275 277 276 276 275 274 274 274 272 271 268 266 270 269 265 261 259 258 258 257 254 252 249 251 254 240 239 233 234 239 240 249 240 242 240 238 230 233 214 210
281 280 278 278 276 275 275 276 278 277 277 276 275 272 273 273 272 270 271 269 261 257 255 253 256 254 253 250 249 247 245 236 236 232 235 239 240 240 243 238 232 229 222 214 210
280 280 278 277 278 277 276 275 276 278 278 276 275 275 275 274 271 272 272 266 264 258 258 249 254 257 252 246 246 243 246 235 236 228 235 239 240 239 238 240 233 232 226 218 220
279 278 276 277 276 275 275 276 277 279 276 274 274 278 276 274 272 272 270 267 262 258 252 251 246 249 250 241 238 238 235 234 232 233 233 236 238 236 239 236 238 224 225 227 223